KC5DAQ-27 Weather Reports


time (UTC)temp
C
wind
direction
speed
KPH
gust
KPH
rain 1hr
cm
rain 24hr
cm
rain mn
cm
humidity
%
barometer
mb
20260502152254 17 61 8.0 11.3 0.03 2.29 0.51 77 1012.2
20260502152155 17 24 8.0 11.3 0.03 2.29 0.51 77 1012.3
20260502152054 17 51 8.0 11.3 0.05 2.31 0.51 77 1012.3
20260502151954 17 59 8.0 14.5 0.05 2.31 0.51 78 1012.2
20260502151855 17 39 6.4 16.1 0.05 2.31 0.51 78 1012.3
20260502151754 17 41 4.8 16.1 0.05 2.31 0.51 78 1012.3
20260502151654 17 56 4.8 16.1 0.05 2.31 0.51 79 1012.2
20260502151555 17 31 4.8 16.1 0.05 2.31 0.51 78 1012.2
20260502151455 17 27 4.8 16.1 0.05 2.31 0.51 78 1012.3
20260502151354 17 354 6.4 16.1 0.05 2.31 0.51 78 1012.2
20260502151254 17 75 6.4 16.1 0.05 2.31 0.51 78 1012.2
20260502151156 17 52 6.4 16.1 0.05 2.31 0.51 78 1012.2
20260502151054 17 358 6.4 16.1 0.05 2.34 0.51 78 1012.2
20260502150954 17 42 6.4 16.1 0.05 2.34 0.51 79 1012.2
20260502150854 17 75 6.4 11.3 0.05 2.34 0.51 79 1012.2
20260502150755 17 28 6.4 11.3 0.05 2.34 0.51 79 1012.2
20260502150654 17 68 6.4 11.3 0.05 2.31 0.48 79 1012.3
20260502150553 17 48 6.4 11.3 0.03 2.31 0.48 80 1012.3
20260502150455 17 31 6.4 11.3 0.03 2.31 0.48 80 1012.3
20260502150353 17 59 4.8 11.3 0.03 2.31 0.48 80 1012.3
20260502150254 17 42 6.4 11.3 0.03 2.31 0.48 80 1012.3
20260502150156 17 51 4.8 11.3 0.03 2.34 0.48 80 1012.3
20260502130652 11 25 4.8 6.4 0.03 2.57 0.43 95 1011.2
20260502130551 11 30 4.8 6.4 0.03 2.59 0.43 96 1011.2
20260502130451 11 30 3.2 6.4 0.03 2.59 0.43 96 1011.1
20260502130351 11 16 3.2 8.0 0.03 2.59 0.43 96 1011.1
20260502130252 11 13 3.2 8.0 0.03 2.59 0.43 95 1011.2
20260502130151 11 0 4.8 8.0 0.03 2.59 0.43 95 1011.2
20260502123751 11 0 3.2 4.8 0.05 2.64 0.43 95 1010.8
20260502123650 11 354 3.2 4.8 0.05 2.62 0.41 95 1010.8
20260502123552 11 351 3.2 4.8 0.03 2.62 0.41 95 1010.8
20260502123450 11 350 3.2 4.8 0.03 2.62 0.41 95 1010.9
20260502123350 11 348 3.2 4.8 0.03 2.62 0.41 95 1010.7
20260502123251 11 347 3.2 4.8 0.03 2.62 0.41 95 1010.7
20260502123152 11 345 3.2 4.8 0.03 2.62 0.41 95 1010.7
20260502123050 11 351 3.2 4.8 0.03 2.62 0.41 95 1010.6
20260502122951 11 350 3.2 4.8 0.03 2.62 0.41 95 1010.7
20260502122851 11 350 3.2 6.4 0.03 2.62 0.41 95 1010.6
20260502122750 11 351 3.2 6.4 0.03 2.64 0.41 95 1010.6
20260502122649 11 348 3.2 6.4 0.03 2.64 0.41 95 1010.6
20260502122547 11 345 3.2 8.0 0.03 2.64 0.41 95 1010.5
20260502122446 11 358 3.2 8.0 0.03 2.64 0.41 95 1010.5
20260502122344 11 0 3.2 8.0 0.03 2.64 0.41 95 1010.5
20260502122242 11 1 3.2 8.0 0.03 2.64 0.41 95 1010.5
20260502122141 11 1 3.2 8.0 0.03 2.64 0.41 95 1010.5
20260502122039 11 350 3.2 8.0 0.03 2.64 0.41 95 1010.5
20260502121938 11 343 3.2 8.0 0.03 2.64 0.41 95 1010.5
20260502121837 11 345 3.2 8.0 0.03 2.64 0.41 95 1010.5
20260502121735 11 345 4.8 8.0 0.03 2.64 0.41 95 1010.5
20260502121633 11 343 4.8 8.0 0.03 2.64 0.41 95 1010.5
20260502121532 11 329 1.6 6.4 0.03 2.64 0.41 95 1010.5
20260502121431 11 1 0.0 6.4 0.03 2.64 0.41 95 1010.5
20260502121331 10 1 1.6 6.4 0.03 2.67 0.41 95 1010.3
20260502121232 10 1 3.2 6.4 0.03 2.67 0.41 95 1010.4
20260502121132 10 1 4.8 6.4 0.03 2.67 0.41 95 1010.3
20260502121030 10 351 4.8 6.4 0.03 2.67 0.41 95 1010.3
20260502120931 10 351 4.8 6.4 0.03 2.67 0.41 95 1010.3
20260502120832 10 341 3.2 6.4 0.03 2.67 0.41 95 1010.4
20260502120731 10 341 3.2 8.0 0.03 2.67 0.41 95 1010.3
20260502120631 10 354 3.2 8.0 0.03 2.67 0.41 95 1010.2
20260502120532 10 354 3.2 8.0 0.03 2.67 0.41 95 1010.2
20260502120431 10 1 4.8 8.0 0.03 2.67 0.41 95 1010.2
20260502120330 10 347 4.8 8.0 0.03 2.67 0.41 95 1010.1
20260502120228 10 314 4.8 8.0 0.03 2.67 0.41 95 1010.2
20260502120127 10 351 4.8 8.0 0.03 2.67 0.41 95 1010.2
20260502115923 10 347 4.8 8.0 0.03 2.67 0.41 95 1010.2
20260502115822 10 347 3.2 8.0 0.03 2.67 0.41 95 1010.2
20260502115720 10 340 3.2 6.4 0.05 2.67 0.41 95 1010.1
20260502115619 10 347 1.6 6.4 0.05 2.67 0.41 95 1010.3
20260502115517 10 347 3.2 6.4 0.05 2.67 0.41 95 1010.2
20260502115416 10 347 3.2 6.4 0.05 2.67 0.41 95 1010.2
20260502115314 10 345 3.2 6.4 0.05 2.67 0.41 95 1010.1
20260502115213 10 343 1.6 6.4 0.05 2.69 0.41 95 1010.1
20260502115111 10 354 0.0 0.0 0.05 2.69 0.41 95 1010.1
20260502115010 11 355 0.0 0.0 0.05 2.69 0.41 95 1010.1
20260502114908 11 0 0.0 0.0 0.05 2.69 0.41 95 1010.1
20260502114806 11 0 0.0 0.0 0.05 2.69 0.41 95 1010.0
20260502114705 11 0 0.0 0.0 0.05 2.67 0.38 95 1010.0
20260502114604 11 0 0.0 0.0 0.03 2.67 0.38 95 1010.1
20260502114504 11 0 0.0 0.0 0.03 2.67 0.38 95 1010.1
20260502114404 11 0 0.0 0.0 0.03 2.67 0.38 95 1010.0
20260502114304 11 21 0.0 0.0 0.03 2.67 0.38 95 1010.0
20260502114204 11 21 0.0 0.0 0.03 2.67 0.38 95 1009.9
20260502114103 11 21 0.0 0.0 0.03 2.67 0.38 95 1010.0
20260502114002 11 21 0.0 0.0 0.03 2.69 0.38 95 1009.9
20260502113904 11 23 0.0 0.0 0.03 2.69 0.38 95 1009.9
20260502113802 11 24 0.0 0.0 0.03 2.69 0.38 95 1009.9
20260502113703 11 1 0.0 0.0 0.03 2.69 0.38 95 1010.1
20260502113602 11 357 0.0 3.2 0.03 2.69 0.38 95 1010.0
20260502113504 11 0 0.0 4.8 0.03 2.69 0.38 95 1010.0
20260502113401 11 0 0.0 4.8 0.03 2.69 0.38 95 1009.9
20260502113301 11 8 0.0 4.8 0.03 2.69 0.38 95 1009.9
20260502113203 11 8 0.0 4.8 0.03 2.69 0.38 95 1009.8
20260502113103 11 25 0.0 4.8 0.03 2.69 0.38 95 1009.8
20260502113003 11 25 0.0 4.8 0.03 2.69 0.38 95 1009.7
20260502112902 11 25 0.0 6.4 0.03 2.69 0.38 95 1009.7
20260502112803 11 25 0.0 6.4 0.03 2.69 0.38 95 1009.8
20260502112703 11 25 1.6 6.4 0.03 2.69 0.38 95 1009.7
20260502112602 11 25 1.6 6.4 0.03 2.72 0.38 95 1009.7
20260502112505 11 25 1.6 6.4 0.03 2.72 0.38 95 1009.6
20260502112403 11 25 1.6 6.4 0.03 2.72 0.38 95 1009.7
20260502112301 11 23 1.6 6.4 0.03 2.72 0.38 95 1009.6
20260502112203 11 23 3.2 6.4 0.03 2.72 0.38 95 1009.6
20260502112103 11 23 3.2 6.4 0.03 2.72 0.38 95 1009.6
20260502112002 11 13 1.6 6.4 0.03 2.72 0.38 95 1009.5
20260502111902 11 37 1.6 6.4 0.05 2.72 0.38 95 1009.5
20260502111803 11 20 3.2 6.4 0.05 2.72 0.38 95 1009.5
20260502111702 11 8 4.8 6.4 0.05 2.72 0.38 95 1009.6
20260502111602 11 4 3.2 6.4 0.05 2.72 0.38 95 1009.6
20260502111503 11 28 0.0 4.8 0.05 2.74 0.38 95 1009.6
20260502111402 11 17 0.0 6.4 0.05 2.74 0.38 95 1009.6
20260502111302 11 17 3.2 6.4 0.05 2.74 0.38 95 1009.6
20260502111202 11 28 1.6 6.4 0.05 2.74 0.38 95 1009.6
20260502111103 11 343 0.0 6.4 0.05 2.74 0.38 95 1009.6
20260502111003 11 1 0.0 6.4 0.05 2.74 0.38 95 1009.6
20260502110901 11 1 0.0 6.4 0.05 2.74 0.38 95 1009.5
20260502110800 11 1 0.0 6.4 0.05 2.74 0.38 95 1009.5
20260502110658 11 1 0.0 6.4 0.05 2.74 0.38 95 1009.4
20260502110556 11 1 3.2 6.4 0.05 2.74 0.38 95 1009.5
20260502110454 11 1 1.6 6.4 0.05 2.74 0.38 95 1009.4
20260502110353 11 1 0.0 0.0 0.05 2.74 0.38 95 1009.5
20260502110252 11 1 0.0 0.0 0.05 2.74 0.38 95 1009.4
20260502110150 11 28 0.0 0.0 0.05 2.74 0.38 95 1009.4
20260502110051 11 28 0.0 0.0 0.05 2.77 0.38 95 1009.4
20260502105949 11 28 0.0 1.6 0.05 2.77 0.38 95 1009.4
20260502105850 11 30 0.0 4.8 0.05 2.77 0.38 95 1009.4
20260502105748 11 30 0.0 4.8 0.03 2.74 0.36 95 1009.4
20260502105648 11 30 0.0 4.8 0.03 2.74 0.36 95 1009.3
20260502105549 11 27 0.0 4.8 0.03 2.74 0.36 95 1009.4
20260502105450 11 27 0.0 4.8 0.03 2.74 0.36 95 1009.5
20260502105348 11 28 0.0 4.8 0.03 2.74 0.36 95 1009.5
20260502105249 11 27 0.0 4.8 0.03 2.74 0.36 95 1009.6
20260502105148 11 32 0.0 4.8 0.03 2.74 0.36 95 1009.5
20260502105048 11 32 0.0 8.0 0.03 2.74 0.36 95 1009.5
20260502104948 11 32 0.0 8.0 0.03 2.74 0.36 95 1009.5
20260502104849 11 32 0.0 8.0 0.03 2.74 0.36 95 1009.5
20260502104749 11 32 0.0 8.0 0.03 2.74 0.36 95 1009.4
20260502104648 11 34 0.0 8.0 0.03 2.77 0.36 95 1009.4
20260502104548 11 31 0.0 8.0 0.03 2.77 0.36 95 1009.4
20260502104448 11 31 0.0 8.0 0.05 2.77 0.36 95 1009.5
20260502104348 11 31 0.0 8.0 0.05 2.77 0.36 95 1009.5
20260502104248 11 32 1.6 8.0 0.05 2.77 0.36 95 1009.5
20260502104148 11 32 3.2 8.0 0.05 2.77 0.36 95 1009.5
20260502104049 11 3 3.2 6.4 0.05 2.77 0.36 95 1009.5
20260502103947 11 3 3.2 6.4 0.05 2.77 0.36 95 1009.5
20260502103848 11 3 3.2 8.0 0.05 2.77 0.36 95 1009.4
20260502103749 11 6 3.2 8.0 0.05 2.77 0.36 95 1009.4
20260502103647 11 25 3.2 8.0 0.05 2.77 0.36 95 1009.3
20260502103547 11 355 3.2 8.0 0.05 2.77 0.36 95 1009.2
20260502103449 11 351 3.2 8.0 0.05 2.77 0.36 95 1009.3
20260502103349 11 7 3.2 8.0 0.05 2.77 0.36 95 1009.3
20260502103247 11 357 3.2 8.0 0.05 2.77 0.36 95 1009.4
20260502103147 11 354 4.8 8.0 0.05 2.77 0.36 94 1009.4
20260502103049 11 350 4.8 8.0 0.05 2.77 0.36 95 1009.4
20260502102947 11 305 3.2 8.0 0.05 2.77 0.36 94 1009.3
20260502102848 11 7 3.2 4.8 0.05 2.77 0.36 94 1009.4
20260502102748 11 7 3.2 4.8 0.05 2.77 0.36 94 1009.3
20260502102649 11 6 3.2 4.8 0.05 2.77 0.36 94 1009.3
20260502102548 11 6 3.2 4.8 0.05 2.77 0.36 94 1009.2
20260502102447 11 16 3.2 4.8 0.05 2.77 0.36 94 1009.2
20260502102349 11 28 3.2 4.8 0.05 2.79 0.36 94 1009.2
20260502102248 11 30 3.2 4.8 0.05 2.79 0.36 94 1009.2
20260502102147 11 28 3.2 4.8 0.05 2.79 0.36 94 1009.2
20260502102047 11 31 3.2 4.8 0.05 2.79 0.36 94 1009.1
20260502101948 11 31 3.2 4.8 0.05 2.77 0.33 94 1009.2
20260502101847 11 31 3.2 4.8 0.05 2.77 0.33 94 1009.1
20260502101748 11 32 3.2 4.8 0.05 2.77 0.33 94 1009.1
20260502101648 11 8 3.2 4.8 0.05 2.77 0.33 95 1009.1
20260502101548 11 3 3.2 6.4 0.05 2.77 0.33 95 1009.0
20260502101447 11 1 3.2 6.4 0.05 2.77 0.33 95 1009.1
20260502101347 11 1 3.2 6.4 0.05 2.77 0.33 95 1009.0
20260502101247 11 7 3.2 6.4 0.05 2.77 0.33 95 1009.0
20260502101148 11 8 3.2 6.4 0.05 2.77 0.33 95 1009.1
20260502101047 11 4 3.2 6.4 0.05 2.77 0.33 95 1009.0
20260502100948 11 14 3.2 6.4 0.05 2.77 0.33 95 1009.1
20260502100848 11 18 3.2 6.4 0.05 2.79 0.33 95 1009.0
20260502100747 11 23 3.2 8.0 0.05 2.79 0.33 94 1009.0
20260502100648 11 30 3.2 8.0 0.05 2.79 0.33 94 1009.0
20260502100547 11 343 3.2 8.0 0.05 2.79 0.33 95 1009.0
20260502100447 11 10 3.2 8.0 0.05 2.79 0.33 95 1008.9
20260502100347 11 11 3.2 8.0 0.05 2.79 0.33 94 1008.9
20260502100248 11 8 3.2 8.0 0.05 2.79 0.33 94 1008.8
20260502100146 11 1 3.2 8.0 0.05 2.79 0.33 94 1008.9
20260502091447 11 48 3.2 4.8 0.05 2.84 0.28 95 1008.0
20260502091346 11 48 1.6 4.8 0.08 2.84 0.28 95 1008.0
20260502091246 11 48 0.0 4.8 0.08 2.84 0.28 95 1008.0
20260502091146 11 51 0.0 3.2 0.08 2.84 0.28 95 1007.9
20260502091046 11 51 0.0 3.2 0.08 2.84 0.28 95 1007.9
20260502090945 11 52 0.0 3.2 0.08 2.84 0.28 95 1007.9
20260502090846 11 52 0.0 3.2 0.08 2.84 0.28 95 1008.0
20260502090747 11 52 0.0 3.2 0.08 2.84 0.28 95 1008.0
20260502090646 11 52 0.0 3.2 0.08 2.84 0.28 95 1007.9
20260502090546 11 52 0.0 3.2 0.08 2.84 0.28 95 1008.0
20260502090445 11 54 0.0 4.8 0.08 2.84 0.28 95 1007.9
20260502090347 11 54 1.6 4.8 0.08 2.84 0.28 95 1007.9
20260502090246 11 54 1.6 4.8 0.08 2.84 0.28 95 1007.9
20260502090146 11 54 0.0 4.8 0.08 2.87 0.28 95 1007.8
20260502071503 12 54 4.8 9.7 0.05 2.95 0.13 96 1007.5
20260502071402 12 62 4.8 9.7 0.05 2.95 0.13 96 1007.5
20260502071303 12 45 4.8 9.7 0.05 2.95 0.13 96 1007.5
20260502071203 12 20 4.8 9.7 0.05 2.95 0.13 96 1007.6
20260502071102 12 49 4.8 9.7 0.05 2.95 0.13 96 1007.5
20260502071003 12 56 4.8 9.7 0.05 2.95 0.13 97 1007.5
20260502070903 12 30 4.8 9.7 0.05 2.95 0.13 96 1007.5
20260502070802 12 49 4.8 9.7 0.05 2.95 0.13 97 1007.6
20260502070702 12 47 4.8 8.0 0.05 2.95 0.13 97 1007.6
20260502070603 12 28 4.8 9.7 0.05 2.95 0.13 97 1007.7
20260502070504 12 42 4.8 9.7 0.05 2.95 0.13 97 1007.7
20260502070402 12 52 3.2 9.7 0.05 2.95 0.13 97 1007.7
20260502070303 12 58 3.2 9.7 0.05 2.95 0.13 97 1007.7
20260502070204 12 68 4.8 9.7 0.05 2.95 0.13 97 1007.7
20260502070002 12 45 4.8 9.7 0.08 2.95 0.13 97 1007.6
20260502065903 12 37 4.8 9.7 0.08 2.95 0.13 97 1007.6
20260502065804 12 62 4.8 9.7 0.08 2.95 0.13 97 1007.7
20260502065702 12 51 4.8 9.7 0.08 2.95 0.13 97 1007.7
20260502065603 12 41 4.8 9.7 0.08 2.95 0.13 97 1007.7
20260502065504 12 41 4.8 9.7 0.08 2.95 0.13 97 1007.7
20260502065402 12 38 4.8 9.7 0.08 2.95 0.13 97 1007.8
20260502065301 12 37 4.8 9.7 0.08 2.95 0.13 97 1007.8
20260502065203 12 34 4.8 9.7 0.08 2.95 0.13 97 1007.8
20260502065103 12 48 6.4 11.3 0.08 2.95 0.13 97 1007.8
20260502065003 12 58 4.8 11.3 0.08 2.95 0.13 97 1007.8
20260502064902 12 38 4.8 11.3 0.08 2.95 0.13 97 1007.8
20260502064803 12 41 4.8 11.3 0.08 2.92 0.10 97 1007.9
20260502064702 12 38 6.4 11.3 0.05 2.92 0.10 97 1007.9
20260502064603 12 59 4.8 11.3 0.05 2.92 0.10 97 1007.9
20260502064504 12 44 4.8 11.3 0.05 2.92 0.10 97 1007.8
20260502064402 12 42 6.4 11.3 0.05 2.92 0.10 97 1007.8
20260502064302 12 39 6.4 11.3 0.05 2.92 0.10 97 1007.8
20260502064202 12 52 6.4 11.3 0.05 2.92 0.10 97 1007.8
20260502064102 12 42 6.4 11.3 0.05 2.92 0.10 97 1007.8
20260502064002 12 54 6.4 11.3 0.05 2.92 0.10 97 1007.7
20260502063903 12 42 6.4 14.5 0.05 2.92 0.10 97 1007.7
20260502063803 12 28 6.4 14.5 0.08 2.92 0.10 97 1007.7
20260502063703 12 35 4.8 14.5 0.08 2.92 0.10 97 1007.7
20260502063601 12 24 4.8 14.5 0.08 2.92 0.10 97 1007.7
20260502063504 12 14 3.2 14.5 0.08 2.92 0.10 97 1007.7
20260502063402 12 48 3.2 14.5 0.08 2.92 0.10 97 1007.6
20260502063302 12 49 4.8 14.5 0.08 2.92 0.10 97 1007.6
20260502063202 12 52 4.8 14.5 0.08 2.92 0.10 97 1007.6
20260502063103 12 59 6.4 14.5 0.08 2.92 0.10 97 1007.7
20260502063001 12 55 6.4 14.5 0.08 2.92 0.10 97 1007.6
20260502062902 12 41 4.8 9.7 0.08 2.92 0.10 97 1007.7
20260502062803 12 27 6.4 9.7 0.08 2.92 0.10 97 1007.7
20260502062702 12 42 4.8 9.7 0.08 2.92 0.10 97 1007.7
20260502062602 12 44 3.2 9.7 0.08 2.92 0.10 97 1007.6
20260502062503 12 47 3.2 9.7 0.08 2.90 0.08 97 1007.6
20260502062402 12 39 3.2 9.7 0.05 2.90 0.08 97 1007.6
20260502062305 12 35 4.8 9.7 0.05 2.90 0.08 97 1007.6
20260502062203 12 56 3.2 9.7 0.05 2.90 0.08 97 1007.5
20260502062103 12 58 4.8 9.7 0.05 2.90 0.08 97 1007.4
20260502062002 12 56 4.8 9.7 0.05 2.90 0.08 97 1007.4
20260502061901 12 49 4.8 9.7 0.05 2.90 0.08 97 1007.4
20260502061804 12 52 4.8 9.7 0.05 2.90 0.08 97 1007.4
20260502061704 12 55 4.8 9.7 0.05 2.90 0.08 97 1007.4
20260502061603 12 52 4.8 9.7 0.05 2.90 0.08 97 1007.4
20260502061502 12 58 4.8 9.7 0.05 2.90 0.08 97 1007.3
20260502061402 12 41 4.8 9.7 0.08 2.90 0.08 97 1007.3
20260502061303 12 39 4.8 9.7 0.08 2.90 0.08 97 1007.3
20260502061203 12 49 4.8 9.7 0.08 2.90 0.08 97 1007.3
20260502061058 12 71 4.8 9.7 0.08 2.90 0.08 97 1007.3
20260502060956 12 14 4.8 9.7 0.08 2.90 0.08 97 1007.4
20260502060856 12 37 4.8 9.7 0.08 2.90 0.08 97 1007.4
20260502060754 12 34 6.4 9.7 0.08 2.90 0.08 97 1007.5
20260502060653 12 45 4.8 16.1 0.08 2.90 0.08 97 1007.4
20260502060551 12 39 6.4 16.1 0.08 2.90 0.08 97 1007.5
20260502060449 12 45 6.4 16.1 0.08 2.90 0.08 97 1007.5
20260502060348 12 54 6.4 16.1 0.08 2.90 0.08 97 1007.5
20260502060246 12 75 6.4 16.1 0.08 2.90 0.08 97 1007.5
20260502060145 12 49 6.4 16.1 0.08 2.90 0.08 97 1007.5
20260502060044 12 34 4.8 16.1 0.08 2.87 0.05 97 1007.3
20260502055942 12 42 4.8 16.1 0.05 2.87 0.05 97 1007.4
20260502055841 12 41 6.4 16.1 0.05 2.87 0.05 97 1007.4
20260502055742 12 49 8.0 16.1 0.05 2.87 0.05 97 1007.3
20260502055643 12 20 8.0 11.3 0.05 2.87 0.05 97 1007.3
20260502055542 12 35 6.4 11.3 0.05 2.87 0.05 97 1007.3
20260502055441 12 54 6.4 11.3 0.05 2.87 0.05 97 1007.4
20260502055342 12 54 6.4 11.3 0.05 2.87 0.05 97 1007.3
20260502055243 12 39 6.4 11.3 0.08 2.87 0.05 97 1007.4
20260502055141 12 44 8.0 11.3 0.08 2.87 0.05 97 1007.4
20260502055041 12 34 6.4 11.3 0.08 2.87 0.05 97 1007.3
20260502054942 12 42 6.4 11.3 0.08 2.87 0.05 97 1007.4
20260502054841 12 78 6.4 11.3 0.08 2.87 0.05 97 1007.4
20260502054741 12 14 6.4 11.3 0.08 2.87 0.05 97 1007.4
20260502054641 12 35 6.4 9.7 0.08 2.87 0.05 97 1007.4
20260502054541 12 62 4.8 9.7 0.08 2.87 0.05 97 1007.5
20260502054442 12 31 4.8 8.0 0.08 2.90 0.05 97 1007.5
20260502054341 12 10 4.8 9.7 0.08 2.90 0.05 97 1007.5
20260502054242 12 35 4.8 9.7 0.08 2.90 0.05 97 1007.5
20260502054141 12 7 4.8 9.7 0.08 2.90 0.05 97 1007.5
20260502054041 12 35 4.8 9.7 0.08 2.90 0.05 97 1007.5
20260502053943 12 28 4.8 9.7 0.08 2.90 0.05 97 1007.5
20260502053841 12 28 4.8 9.7 0.08 2.87 0.03 97 1007.5
20260502053742 12 27 4.8 9.7 0.05 2.87 0.03 97 1007.5
20260502053641 12 42 6.4 9.7 0.05 2.87 0.03 97 1007.5
20260502053542 12 62 6.4 9.7 0.05 2.87 0.03 97 1007.5
20260502053441 12 34 6.4 9.7 0.05 2.87 0.03 97 1007.6
20260502053341 12 45 6.4 9.7 0.05 2.87 0.03 97 1007.5
20260502053242 12 21 4.8 9.7 0.05 2.87 0.03 97 1007.6
20260502053141 12 45 4.8 9.7 0.05 2.87 0.03 97 1007.5
20260502053042 12 48 4.8 9.7 0.05 2.87 0.03 97 1007.6
20260502052941 12 30 4.8 9.7 0.05 2.87 0.03 97 1007.6
20260502052842 12 45 4.8 9.7 0.05 2.87 0.03 97 1007.5
20260502052740 12 41 4.8 9.7 0.05 2.87 0.03 97 1007.5
20260502052641 12 28 4.8 9.7 0.05 2.87 0.03 97 1007.5
20260502052542 12 42 6.4 14.5 0.05 2.87 0.03 97 1007.5
20260502052440 12 44 6.4 14.5 0.05 2.87 0.03 97 1007.5
20260502052341 12 47 6.4 14.5 0.08 2.87 0.03 97 1007.5
20260502052242 12 30 6.4 14.5 0.08 2.87 0.03 97 1007.5
20260502052143 12 39 6.4 14.5 0.08 2.87 0.03 97 1007.4
20260502052041 12 44 6.4 14.5 0.08 2.87 0.03 97 1007.4
20260502051941 12 32 4.8 14.5 0.08 2.87 0.03 97 1007.4
20260502051841 12 42 4.8 14.5 0.08 2.87 0.03 97 1007.4
20260502051741 12 18 4.8 14.5 0.08 2.87 0.03 97 1007.4
20260502051640 12 4 6.4 14.5 0.08 2.87 0.03 97 1007.4
20260502051541 12 20 4.8 8.0 0.08 2.87 0.03 97 1007.4
20260502051442 12 47 4.8 9.7 0.05 2.84 0.00 97 1007.4
20260502051340 12 49 3.2 9.7 0.05 2.84 0.00 97 1007.4
20260502051241 12 54 3.2 9.7 0.05 2.84 0.00 97 1007.3
20260502051140 12 47 4.8 9.7 0.05 2.84 0.00 97 1007.4
20260502051041 12 38 6.4 9.7 0.05 2.84 0.00 97 1007.3
20260502050940 12 1 4.8 9.7 0.05 2.84 0.00 97 1007.4
20260502050841 12 27 4.8 9.7 0.05 2.84 0.00 97 1007.4
20260502050741 12 45 4.8 9.7 0.05 2.84 0.00 97 1007.5
20260502050640 12 32 4.8 9.7 0.05 2.84 0.00 97 1007.4
20260502050540 12 32 4.8 9.7 0.05 2.84 0.00 97 1007.4
20260502050441 12 354 4.8 9.7 0.05 2.84 0.00 97 1007.4
20260502050340 12 24 4.8 9.7 0.05 2.84 0.00 97 1007.5
20260502050240 12 16 6.4 9.7 0.05 2.84 0.00 97 1007.4
20260502050140 12 42 6.4 9.7 0.05 2.84 0.00 97 1007.4
20260502050041 12 35 4.8 9.7 0.05 2.84 0.00 97 1007.3
20260502045941 12 20 4.8 11.3 0.05 2.84 2.84 97 1007.2
20260502045840 12 28 4.8 11.3 0.08 2.84 2.84 97 1007.2
20260502045741 12 18 4.8 11.3 0.08 2.84 2.84 97 1007.2
20260502045640 12 25 4.8 11.3 0.08 2.84 2.84 97 1007.3
20260502045541 12 34 4.8 11.3 0.08 2.84 2.84 97 1007.3
20260502045440 12 35 4.8 11.3 0.08 2.84 2.84 97 1007.3
20260502045341 12 38 6.4 11.3 0.08 2.84 2.84 97 1007.3
20260502045239 12 44 6.4 11.3 0.05 2.82 2.82 97 1007.3
20260502045140 12 28 6.4 11.3 0.05 2.82 2.82 97 1007.3
20260502045041 12 32 6.4 11.3 0.05 2.82 2.82 97 1007.4
20260502044940 12 35 6.4 11.3 0.05 2.82 2.82 97 1007.4
20260502044840 12 23 4.8 11.3 0.05 2.82 2.82 97 1007.3
20260502044741 12 35 3.2 11.3 0.05 2.82 2.82 97 1007.4
20260502044640 12 34 3.2 11.3 0.05 2.82 2.82 97 1007.4
20260502044540 12 31 4.8 11.3 0.05 2.82 2.82 97 1007.4
20260502044440 12 21 6.4 11.3 0.05 2.82 2.82 97 1007.3
20260502044341 12 42 6.4 11.3 0.05 2.82 2.82 97 1007.3
20260502044241 12 39 6.4 9.7 0.05 2.82 2.82 97 1007.4
20260502044140 12 30 6.4 9.7 0.05 2.82 2.82 97 1007.3
20260502044041 12 21 6.4 9.7 0.05 2.82 2.82 97 1007.3
20260502043940 12 28 6.4 9.7 0.05 2.82 2.82 97 1007.3
20260502043839 12 35 4.8 9.7 0.05 2.82 2.82 97 1007.2
20260502043740 12 20 4.8 9.7 0.05 2.82 2.82 97 1007.2
20260502043641 12 32 6.4 11.3 0.05 2.82 2.82 97 1007.2
20260502043539 12 49 6.4 11.3 0.05 2.82 2.82 97 1007.2
20260502043440 12 39 6.4 11.3 0.05 2.82 2.82 97 1007.2
20260502043339 12 37 6.4 11.3 0.05 2.82 2.82 97 1007.2
20260502043240 12 51 6.4 11.3 0.05 2.82 2.82 97 1007.2
20260502043140 12 39 6.4 11.3 0.05 2.82 2.82 97 1007.3
20260502043039 12 52 6.4 11.3 0.05 2.82 2.82 97 1007.3
20260502042941 12 41 6.4 11.3 0.05 2.82 2.82 97 1007.4
20260502042841 12 49 6.4 11.3 0.05 2.82 2.82 97 1007.3
20260502042739 12 56 8.0 14.5 0.08 2.82 2.82 97 1007.3
20260502042641 12 68 6.4 14.5 0.08 2.82 2.82 97 1007.3
20260502042539 12 41 6.4 14.5 0.08 2.82 2.82 97 1007.4
20260502042440 12 38 6.4 14.5 0.05 2.79 2.79 97 1007.3
20260502042339 12 49 6.4 14.5 0.05 2.79 2.79 97 1007.2
20260502042240 12 42 6.4 14.5 0.05 2.79 2.79 97 1007.2
20260502042140 12 32 6.4 14.5 0.05 2.79 2.79 97 1007.2
20260502042039 12 31 6.4 14.5 0.05 2.79 2.79 97 1007.1
20260502041940 12 39 8.0 14.5 0.05 2.79 2.79 97 1007.2
20260502041839 12 51 8.0 14.5 0.05 2.79 2.79 97 1007.1
20260502041739 12 35 6.4 11.3 0.05 2.79 2.79 97 1007.1
20260502041639 12 25 6.4 11.3 0.05 2.79 2.79 97 1007.1
20260502041540 12 34 4.8 11.3 0.05 2.79 2.79 97 1007.1
20260502041440 12 35 4.8 11.3 0.05 2.79 2.79 97 1007.0
20260502041339 12 32 6.4 11.3 0.05 2.79 2.79 97 1007.0
20260502041240 12 47 6.4 11.3 0.05 2.79 2.79 97 1007.1
20260502041139 12 32 6.4 11.3 0.05 2.79 2.79 97 1007.1
20260502041039 12 45 6.4 11.3 0.05 2.79 2.79 97 1007.1
20260502040939 12 357 6.4 11.3 0.05 2.79 2.79 97 1007.1
20260502040840 12 32 6.4 11.3 0.05 2.79 2.79 97 1007.0
20260502040740 12 30 6.4 11.3 0.05 2.79 2.79 97 1007.1
20260502040639 12 47 6.4 11.3 0.05 2.79 2.79 97 1007.1
20260502040540 12 39 6.4 11.3 0.08 2.79 2.79 97 1007.0
20260502040439 12 42 4.8 9.7 0.08 2.79 2.79 97 1007.0
20260502040338 12 45 4.8 9.7 0.08 2.79 2.79 97 1007.0
20260502040241 12 47 6.4 9.7 0.08 2.79 2.79 97 1007.0
20260502040141 12 44 6.4 9.7 0.08 2.79 2.79 97 1007.0
20260502040039 12 39 6.4 9.7 0.08 2.79 2.79 97 1007.0
20260502035938 12 41 4.8 9.7 0.08 2.79 2.79 97 1007.0
20260502035840 12 44 4.8 9.7 0.05 2.77 2.77 97 1007.0
20260502035738 12 45 6.4 9.7 0.05 2.77 2.77 97 1007.0
20260502035639 12 41 6.4 9.7 0.05 2.77 2.77 97 1006.9
20260502035540 12 42 6.4 9.7 0.05 2.77 2.77 97 1006.9
20260502035439 13 48 4.8 9.7 0.05 2.77 2.77 97 1007.0
20260502035338 12 42 4.8 9.7 0.05 2.77 2.77 97 1007.1
20260502035239 13 23 6.4 9.7 0.05 2.77 2.77 97 1007.1
20260502035140 13 17 6.4 9.7 0.05 2.77 2.77 97 1007.1
20260502035039 13 48 6.4 9.7 0.05 2.77 2.77 97 1007.2
20260502034938 13 357 4.8 9.7 0.05 2.77 2.77 97 1007.2
20260502034839 13 6 6.4 9.7 0.05 2.77 2.77 97 1007.3
20260502034738 13 51 4.8 9.7 0.05 2.77 2.77 97 1007.3
20260502034639 13 39 4.8 9.7 0.05 2.77 2.77 97 1007.2
20260502034539 13 52 6.4 9.7 0.05 2.77 2.77 97 1007.2
20260502034440 13 7 6.4 9.7 0.05 2.77 2.77 97 1007.2
20260502034339 13 23 6.4 9.7 0.08 2.77 2.77 97 1007.2
20260502034239 13 38 6.4 9.7 0.08 2.77 2.77 97 1007.2
20260502034139 13 47 6.4 9.7 0.08 2.77 2.77 97 1007.3
20260502034039 13 0 6.4 9.7 0.08 2.77 2.77 97 1007.3
20260502033939 13 1 4.8 8.0 0.08 2.77 2.77 97 1007.4
20260502033838 13 1 3.2 8.0 0.08 2.77 2.77 97 1007.3
20260502033740 13 27 4.8 8.0 0.08 2.77 2.77 97 1007.3
20260502033638 13 32 4.8 8.0 0.08 2.77 2.77 97 1007.4
20260502033538 13 31 4.8 6.4 0.08 2.77 2.77 98 1007.4
20260502033440 13 24 4.8 6.4 0.08 2.77 2.77 97 1007.4
20260502033338 13 20 4.8 6.4 0.08 2.77 2.77 98 1007.4
20260502033238 13 20 4.8 6.4 0.08 2.77 2.77 98 1007.3
20260502033138 13 17 4.8 6.4 0.08 2.77 2.77 98 1007.4
20260502033039 13 18 4.8 6.4 0.08 2.77 2.77 98 1007.4
20260502032938 13 330 4.8 6.4 0.08 2.77 2.77 98 1007.4
20260502032838 13 24 3.2 6.4 0.08 2.74 2.74 98 1007.4
20260502032739 13 18 3.2 6.4 0.05 2.74 2.74 98 1007.3
20260502032638 13 17 3.2 6.4 0.08 2.74 2.74 98 1007.2
20260502032538 13 25 3.2 8.0 0.08 2.74 2.74 98 1007.3
20260502032438 13 25 3.2 8.0 0.08 2.74 2.74 98 1007.2
20260502032340 13 42 3.2 8.0 0.08 2.74 2.74 98 1007.2
20260502032238 13 44 3.2 8.0 0.08 2.74 2.74 98 1007.1
20260502032138 13 34 3.2 8.0 0.08 2.74 2.74 98 1007.1
20260502032040 13 3 3.2 8.0 0.08 2.74 2.74 98 1007.1
20260502031939 13 1 3.2 8.0 0.08 2.74 2.74 98 1007.1
20260502031838 13 0 3.2 8.0 0.08 2.74 2.74 97 1007.0
20260502031739 13 350 3.2 8.0 0.08 2.74 2.74 98 1007.1
20260502031639 13 0 3.2 8.0 0.08 2.74 2.74 97 1007.0
20260502031539 13 358 3.2 8.0 0.08 2.74 2.74 97 1007.1
20260502031438 13 0 3.2 8.0 0.08 2.74 2.74 97 1007.2
20260502031339 13 0 3.2 8.0 0.08 2.74 2.74 97 1007.2
20260502031237 13 1 3.2 8.0 0.08 2.74 2.74 97 1007.2
20260502031138 13 17 4.8 8.0 0.08 2.74 2.74 97 1007.1
20260502031037 13 35 3.2 8.0 0.10 2.74 2.74 97 1007.1
20260502030938 13 17 3.2 8.0 0.10 2.74 2.74 97 1007.1
20260502030838 13 3 3.2 8.0 0.10 2.74 2.74 97 1006.9
20260502030738 13 348 4.8 8.0 0.10 2.74 2.74 97 1006.9
20260502030639 13 30 4.8 8.0 0.10 2.74 2.74 97 1006.8
20260502030537 13 20 4.8 8.0 0.08 2.72 2.72 97 1006.8
20260502030438 13 8 4.8 8.0 0.08 2.72 2.72 97 1006.8
20260502030338 13 41 4.8 8.0 0.08 2.72 2.72 97 1006.8
20260502030237 13 51 4.8 8.0 0.08 2.72 2.72 97 1006.8
20260502030138 12 1 3.2 8.0 0.08 2.72 2.72 97 1006.8
20260502030038 12 17 4.8 8.0 0.08 2.72 2.72 98 1006.8
20260502025938 12 1 4.8 9.7 0.08 2.72 2.72 97 1006.8
20260502025837 12 31 4.8 9.7 0.08 2.72 2.72 97 1006.8
20260502025739 12 35 4.8 9.7 0.10 2.72 2.72 97 1006.7
20260502025637 12 27 4.8 9.7 0.10 2.72 2.72 97 1006.7
20260502025538 12 24 6.4 9.7 0.10 2.72 2.72 97 1006.7
20260502025437 12 38 6.4 9.7 0.10 2.72 2.72 97 1006.7
20260502025337 12 28 6.4 11.3 0.10 2.72 2.72 97 1006.7
20260502025238 12 42 6.4 11.3 0.10 2.72 2.72 97 1006.7
20260502025137 12 54 6.4 11.3 0.10 2.72 2.72 97 1006.7
20260502025038 12 21 4.8 11.3 0.10 2.72 2.72 97 1006.6
20260502024938 12 31 4.8 11.3 0.10 2.72 2.72 97 1006.7
20260502024838 12 37 4.8 11.3 0.10 2.72 2.72 97 1006.5
20260502024737 12 34 4.8 11.3 0.10 2.72 2.72 97 1006.5
20260502024638 12 31 4.8 11.3 0.10 2.72 2.72 97 1006.4
20260502024538 12 32 6.4 11.3 0.10 2.72 2.72 97 1006.4
20260502024437 12 38 6.4 11.3 0.10 2.69 2.69 97 1006.3
20260502024337 12 38 6.4 11.3 0.08 2.69 2.69 97 1006.4
20260502024239 12 41 4.8 11.3 0.10 2.69 2.69 97 1006.3
20260502024137 12 28 6.4 11.3 0.10 2.69 2.69 97 1006.3
20260502024037 12 39 6.4 11.3 0.10 2.69 2.69 97 1006.3
20260502023937 12 59 6.4 11.3 0.10 2.69 2.69 97 1006.3
20260502023839 12 37 6.4 11.3 0.10 2.69 2.69 97 1006.2
20260502023737 12 38 6.4 14.5 0.10 2.69 2.69 97 1006.1
20260502023637 12 35 6.4 14.5 0.10 2.69 2.69 97 1006.2
20260502023539 12 38 6.4 14.5 0.10 2.69 2.69 97 1006.2
20260502023435 12 41 8.0 14.5 0.10 2.69 2.69 97 1006.1
20260502023334 12 23 6.4 14.5 0.10 2.69 2.69 97 1006.0
20260502023234 12 63 4.8 14.5 0.10 2.69 2.69 97 1006.1
20260502023132 12 6 4.8 14.5 0.10 2.69 2.69 97 1005.9
20260502023031 12 48 6.4 14.5 0.10 2.69 2.69 97 1005.8
20260502022932 12 63 8.0 14.5 0.10 2.69 2.69 97 1005.7
20260502022831 12 41 8.0 14.5 0.13 2.69 2.69 97 1005.5
20260502022732 12 355 6.4 14.5 0.13 2.67 2.67 97 1005.5
20260502022631 12 52 6.4 14.5 0.10 2.67 2.67 97 1005.4
20260502022532 12 41 6.4 14.5 0.10 2.67 2.67 97 1005.3
20260502022433 12 32 6.4 14.5 0.10 2.67 2.67 97 1005.4
20260502022331 12 42 8.0 14.5 0.10 2.67 2.67 97 1005.3
20260502022232 12 18 8.0 14.5 0.10 2.67 2.67 97 1005.3
20260502022132 12 54 6.4 16.1 0.10 2.67 2.67 97 1005.3
20260502022031 12 35 8.0 16.1 0.10 2.67 2.67 97 1005.2
20260502021931 12 54 6.4 16.1 0.10 2.67 2.67 97 1005.3
20260502021830 12 37 6.4 16.1 0.10 2.67 2.67 97 1005.4
20260502021732 12 25 6.4 16.1 0.10 2.67 2.67 97 1005.4
20260502021631 12 44 6.4 16.1 0.10 2.67 2.67 97 1005.4
20260502021530 12 41 4.8 16.1 0.10 2.67 2.67 97 1005.3
20260502021432 12 34 4.8 16.1 0.10 2.67 2.67 97 1005.4
20260502021331 12 18 6.4 16.1 0.10 2.67 2.67 97 1005.4
20260502021230 12 47 8.0 16.1 0.13 2.67 2.67 97 1005.4
20260502021128 12 42 8.0 16.1 0.13 2.64 2.64 97 1005.4
20260502021027 12 44 8.0 14.5 0.10 2.64 2.64 97 1005.3
20260502020925 12 39 8.0 14.5 0.10 2.64 2.64 97 1005.3
20260502020823 12 32 8.0 14.5 0.10 2.64 2.64 97 1005.3
20260502020721 12 32 8.0 11.3 0.10 2.64 2.64 97 1005.2
20260502020621 12 41 8.0 11.3 0.10 2.64 2.64 97 1005.2
20260502020519 12 59 6.4 11.3 0.10 2.64 2.64 97 1005.3
20260502020418 12 28 6.4 16.1 0.10 2.64 2.64 97 1005.2
20260502020316 12 42 6.4 16.1 0.10 2.64 2.64 97 1005.2
20260502020214 12 28 8.0 16.1 0.10 2.64 2.64 97 1005.2
20260502020113 12 49 8.0 16.1 0.10 2.64 2.64 97 1005.3
20260502020012 12 56 8.0 16.1 0.10 2.64 2.64 97 1005.2
20260502015910 12 25 8.0 16.1 0.10 2.64 2.64 97 1005.3
20260502015809 12 44 6.4 16.1 0.08 2.62 2.62 97 1005.3
20260502015707 12 38 8.0 16.1 0.08 2.62 2.62 97 1005.4
20260502015605 12 16 8.0 16.1 0.08 2.62 2.62 97 1005.4
20260502015505 12 52 8.0 16.1 0.10 2.62 2.62 97 1005.3
20260502015403 13 44 8.0 14.5 0.10 2.62 2.62 97 1005.4
20260502015305 13 45 8.0 14.5 0.10 2.62 2.62 97 1005.3
20260502015203 13 21 9.7 14.5 0.10 2.62 2.62 97 1005.2
20260502015103 13 34 9.7 14.5 0.10 2.62 2.62 97 1005.2
20260502015003 13 331 8.0 14.5 0.10 2.62 2.62 97 1005.2
20260502014902 13 42 6.4 14.5 0.10 2.62 2.62 97 1005.2
20260502014803 13 35 6.4 14.5 0.10 2.62 2.62 97 1005.3
20260502014702 13 45 6.4 14.5 0.10 2.62 2.62 97 1005.2
20260502014602 13 34 8.0 14.5 0.10 2.62 2.62 97 1005.2
20260502014502 13 31 8.0 14.5 0.10 2.62 2.62 97 1005.2
20260502014403 13 42 8.0 14.5 0.10 2.62 2.62 97 1005.2
20260502014302 13 30 8.0 14.5 0.10 2.59 2.59 97 1005.1
20260502014202 13 42 6.4 11.3 0.08 2.59 2.59 97 1005.2
20260502014104 13 30 6.4 11.3 0.10 2.59 2.59 97 1005.2
20260502014001 13 37 6.4 11.3 0.10 2.59 2.59 97 1005.2
20260502013900 13 49 8.0 9.7 0.10 2.59 2.59 97 1005.2
20260502013758 13 41 8.0 9.7 0.10 2.59 2.59 97 1005.2
20260502013642 13 28 6.4 9.7 0.10 2.59 2.59 97 1005.3
20260502013541 13 48 6.4 11.3 0.10 2.59 2.59 97 1005.3
20260502013439 13 14 4.8 16.1 0.10 2.59 2.59 97 1005.2
20260502013337 13 11 4.8 16.1 0.10 2.59 2.59 97 1005.2
20260502013237 13 27 4.8 16.1 0.10 2.59 2.59 97 1005.0
20260502013136 13 21 6.4 16.1 0.10 2.59 2.59 97 1004.9
20260502013036 13 21 4.8 16.1 0.10 2.59 2.59 97 1004.9
20260502012936 13 13 6.4 16.1 0.10 2.59 2.59 97 1004.9
20260502012835 13 18 6.4 16.1 0.08 2.57 2.57 97 1004.9
20260502012736 13 30 6.4 16.1 0.10 2.57 2.57 97 1004.9
20260502012636 13 13 8.0 16.1 0.10 2.57 2.57 97 1004.8
20260502012536 13 32 8.0 16.1 0.10 2.57 2.57 97 1004.9
20260502012436 13 31 6.4 14.5 0.10 2.57 2.57 97 1004.9
20260502012335 13 28 8.0 14.5 0.10 2.57 2.57 97 1004.8
20260502012235 13 35 6.4 14.5 0.10 2.57 2.57 97 1004.7
20260502012135 13 0 6.4 14.5 0.10 2.57 2.57 97 1004.7
20260502012035 13 20 6.4 14.5 0.10 2.57 2.57 97 1004.7
20260502011936 13 39 6.4 14.5 0.10 2.57 2.57 97 1004.7
20260502011835 13 42 6.4 14.5 0.10 2.57 2.57 97 1004.7
20260502011735 13 27 6.4 14.5 0.10 2.57 2.57 97 1004.6
20260502011634 13 25 8.0 14.5 0.10 2.57 2.57 97 1004.6
20260502011532 13 4 6.4 14.5 0.10 2.57 2.57 97 1004.6
20260502011431 13 357 6.4 14.5 0.10 2.57 2.57 97 1004.5
20260502011331 13 44 6.4 14.5 0.13 2.57 2.57 97 1004.5
20260502011233 13 39 6.4 14.5 0.10 2.54 2.54 97 1004.5
20260502011132 13 13 6.4 14.5 0.10 2.54 2.54 98 1004.5
20260502011031 13 18 6.4 14.5 0.10 2.54 2.54 98 1004.6
20260502010933 13 27 6.4 11.3 0.10 2.54 2.54 98 1004.6
20260502010831 13 41 6.4 11.3 0.10 2.54 2.54 97 1004.6
20260502010730 13 27 6.4 11.3 0.10 2.54 2.54 97 1004.6
20260502010632 13 17 8.0 11.3 0.10 2.54 2.54 97 1004.6
20260502010532 14 34 6.4 14.5 0.10 2.54 2.54 97 1004.7
20260502010431 14 27 6.4 14.5 0.10 2.54 2.54 97 1004.7
20260502010332 14 37 6.4 14.5 0.10 2.54 2.54 97 1004.7
20260502010232 14 6 4.8 14.5 0.10 2.54 2.54 97 1005.0
20260502010131 14 17 4.8 14.5 0.13 2.54 2.54 97 1005.0
20260502010031 14 16 6.4 14.5 0.13 2.54 2.54 97 1005.2
20260502005932 14 1 6.4 14.5 0.13 2.54 2.54 97 1005.3
20260502005830 14 8 6.4 14.5 0.13 2.54 2.54 98 1005.3
20260502005732 14 13 6.4 14.5 0.13 2.54 2.54 98 1005.5
20260502005631 14 0 6.4 14.5 0.13 2.51 2.51 98 1005.5
20260502005532 14 17 4.8 9.7 0.10 2.51 2.51 98 1005.5
20260502005431 14 351 4.8 9.7 0.10 2.51 2.51 98 1005.5
20260502005332 14 348 4.8 9.7 0.10 2.51 2.51 98 1005.4
20260502005233 14 56 6.4 9.7 0.10 2.51 2.51 98 1005.3
20260502005131 14 353 4.8 9.7 0.10 2.51 2.51 98 1005.2
20260502005031 14 6 4.8 9.7 0.10 2.51 2.51 98 1005.2
20260502004931 14 31 4.8 9.7 0.10 2.51 2.51 98 1005.1
20260502004831 14 30 4.8 9.7 0.10 2.51 2.51 98 1005.0
20260502004731 14 4 6.4 17.7 0.10 2.51 2.51 98 1004.9
20260502004631 14 354 6.4 17.7 0.13 2.51 2.51 97 1004.9
20260502004532 14 0 6.4 17.7 0.13 2.51 2.51 97 1004.9
20260502004431 14 341 4.8 17.7 0.13 2.51 2.51 97 1004.9
20260502004332 14 358 6.4 17.7 0.13 2.51 2.51 97 1004.9
20260502004233 14 0 6.4 17.7 0.13 2.51 2.51 97 1004.8
20260502004132 14 358 6.4 17.7 0.10 2.49 2.49 97 1004.7
20260502004030 14 343 6.4 17.7 0.10 2.49 2.49 98 1004.5
20260502003931 14 0 6.4 17.7 0.10 2.49 2.49 98 1004.4
20260502003832 14 321 6.4 17.7 0.10 2.49 2.49 98 1004.4
20260502003731 14 0 4.8 14.5 0.10 2.49 2.49 98 1004.2
20260502003631 14 7 4.8 14.5 0.10 2.49 2.49 98 1004.1
20260502003532 14 0 6.4 14.5 0.10 2.49 2.49 98 1004.1
20260502003431 14 23 6.4 14.5 0.13 2.49 2.49 98 1004.0
20260502003329 15 17 6.4 14.5 0.13 2.49 2.49 98 1004.0
20260502003228 15 16 4.8 14.5 0.13 2.49 2.49 98 1003.9
20260502003126 15 11 4.8 14.5 0.13 2.49 2.49 98 1003.9
20260502003025 15 31 6.4 14.5 0.13 2.49 2.49 98 1003.9
20260502002923 15 7 4.8 9.7 0.13 2.49 2.49 98 1003.9
20260502002822 15 13 4.8 9.7 0.13 2.49 2.49 98 1003.8
20260502002720 15 32 3.2 9.7 0.10 2.46 2.46 98 1003.8
20260502002619 15 32 3.2 9.7 0.10 2.46 2.46 98 1003.7
20260502002517 15 32 4.8 9.7 0.10 2.46 2.46 98 1003.7
20260502002416 15 23 4.8 9.7 0.10 2.46 2.46 98 1003.8
20260502002314 14 20 6.4 9.7 0.10 2.46 2.46 98 1003.7
20260502002213 15 14 6.4 9.7 0.10 2.46 2.46 98 1003.7
20260502002112 15 21 6.4 9.7 0.13 2.46 2.46 98 1003.6
20260502002010 15 35 6.4 9.7 0.13 2.46 2.46 98 1003.6
20260502001909 15 38 6.4 9.7 0.13 2.46 2.46 98 1003.7
20260502001807 15 44 6.4 9.7 0.13 2.46 2.46 98 1003.7
20260502001706 15 34 6.4 9.7 0.13 2.46 2.46 98 1003.7
20260502001604 15 41 6.4 9.7 0.13 2.46 2.46 98 1003.8
20260502001504 15 38 6.4 9.7 0.13 2.46 2.46 98 1003.9
20260502001403 15 37 4.8 9.7 0.13 2.46 2.46 98 1004.0
20260502001303 15 28 6.4 9.7 0.10 2.44 2.44 98 1004.1
20260502001202 15 41 4.8 9.7 0.10 2.44 2.44 98 1004.2
20260502001103 15 23 4.8 8.0 0.13 2.44 2.44 98 1004.4
20260502001003 15 25 3.2 8.0 0.13 2.44 2.44 98 1004.5
20260502000904 15 34 3.2 8.0 0.13 2.44 2.44 98 1004.7
20260502000803 15 35 4.8 8.0 0.13 2.44 2.44 98 1004.8
20260502000703 15 8 6.4 8.0 0.13 2.44 2.44 98 1004.9
20260502000602 15 0 6.4 8.0 0.13 2.44 2.44 98 1005.0
20260502000502 15 358 4.8 8.0 0.13 2.44 2.44 98 1005.0
20260502000402 15 0 6.4 8.0 0.13 2.44 2.44 98 1005.0
20260502000303 15 353 6.4 8.0 0.13 2.44 2.44 98 1005.0
20260502000204 15 343 4.8 6.4 0.13 2.41 2.41 98 1005.0
20260502000002 15 7 3.2 6.4 0.13 2.41 2.41 98 1004.8
20260501235902 15 65 1.6 6.4 0.13 2.41 2.41 98 1004.7
20260501235802 15 52 1.6 6.4 0.13 2.41 2.41 98 1004.6
20260501235702 15 44 3.2 6.4 0.13 2.41 2.41 98 1004.5
20260501235604 15 44 3.2 6.4 0.13 2.41 2.41 98 1004.5
20260501235504 15 45 3.2 6.4 0.13 2.41 2.41 98 1004.3
20260501235402 15 45 3.2 6.4 0.13 2.41 2.41 98 1004.2
20260501235305 15 45 3.2 6.4 0.13 2.41 2.41 98 1004.1
20260501235203 15 45 3.2 6.4 0.13 2.41 2.41 98 1004.0
20260501235103 15 45 1.6 6.4 0.13 2.41 2.41 98 1003.9
20260501235001 15 49 0.0 6.4 0.15 2.41 2.41 98 1004.0
20260501234902 15 51 1.6 6.4 0.15 2.41 2.41 98 1004.1
20260501234803 15 51 3.2 6.4 0.15 2.41 2.41 98 1004.1
20260501234701 15 18 3.2 6.4 0.15 2.39 2.39 98 1004.3
20260501234602 15 11 3.2 6.4 0.13 2.39 2.39 98 1004.2
20260501234503 15 7 3.2 8.0 0.13 2.39 2.39 98 1004.1
20260501234402 15 14 3.2 8.0 0.13 2.39 2.39 98 1004.0
20260501234301 15 7 3.2 8.0 0.13 2.39 2.39 98 1003.9
20260501234202 15 55 3.2 8.0 0.13 2.39 2.39 98 1003.8
20260501234103 15 42 3.2 8.0 0.13 2.39 2.39 98 1003.8
20260501234002 15 56 4.8 8.0 0.15 2.39 2.39 98 1003.7
20260501233902 15 41 4.8 8.0 0.15 2.39 2.39 98 1003.7
20260501233803 15 13 4.8 8.0 0.15 2.39 2.39 98 1003.7
20260501233702 15 16 4.8 8.0 0.15 2.39 2.39 98 1003.6
20260501233602 15 25 4.8 8.0 0.15 2.39 2.39 98 1003.6
20260501233503 15 20 3.2 8.0 0.15 2.36 2.36 98 1003.6
20260501233403 15 17 3.2 8.0 0.13 2.36 2.36 98 1003.7
20260501233302 15 0 4.8 8.0 0.13 2.36 2.36 98 1003.9
20260501233202 15 0 4.8 8.0 0.13 2.36 2.36 98 1004.0
20260501233104 15 0 4.8 8.0 0.15 2.36 2.36 98 1004.3
20260501233002 15 0 4.8 8.0 0.15 2.36 2.36 98 1004.5
20260501232902 15 8 4.8 8.0 0.15 2.36 2.36 98 1004.5
20260501232803 15 354 4.8 8.0 0.15 2.36 2.36 98 1004.7
20260501232702 15 333 4.8 8.0 0.15 2.36 2.36 98 1004.7
20260501232604 15 347 3.2 8.0 0.15 2.36 2.36 98 1004.6
20260501232503 15 0 3.2 8.0 0.15 2.36 2.36 98 1004.4
20260501232403 15 24 3.2 8.0 0.15 2.36 2.36 98 1004.2
20260501232305 15 357 4.8 8.0 0.15 2.36 2.36 98 1004.1
20260501232203 15 23 3.2 9.7 0.15 2.34 2.34 98 1003.9
20260501232103 15 31 3.2 9.7 0.15 2.34 2.34 98 1003.8
20260501232003 15 31 4.8 9.7 0.15 2.34 2.34 98 1003.6
20260501231902 15 30 4.8 9.7 0.15 2.34 2.34 98 1003.6
20260501231801 15 16 4.8 9.7 0.15 2.34 2.34 98 1003.5
20260501231703 15 28 4.8 11.3 0.15 2.34 2.34 98 1003.5
20260501231602 15 41 3.2 14.5 0.15 2.34 2.34 98 1003.5
20260501231504 15 41 4.8 14.5 0.15 2.34 2.34 98 1003.5
20260501231403 15 37 4.8 14.5 0.15 2.34 2.34 98 1003.3
20260501231302 15 16 4.8 14.5 0.15 2.34 2.34 98 1003.2
20260501231201 15 14 4.8 14.5 0.18 2.31 2.31 98 1003.0
20260501231103 15 41 4.8 14.5 0.15 2.31 2.31 98 1002.8
20260501231004 15 80 6.4 14.5 0.15 2.31 2.31 98 1002.8
20260501230902 15 68 8.0 14.5 0.15 2.31 2.31 98 1002.7
20260501230803 15 48 6.4 14.5 0.15 2.31 2.31 98 1002.7
20260501230703 15 51 4.8 14.5 0.15 2.31 2.31 98 1002.7
20260501230602 15 79 4.8 16.1 0.15 2.31 2.31 98 1002.7
20260501230502 15 56 3.2 16.1 0.15 2.31 2.31 98 1002.7
20260501230403 15 72 3.2 16.1 0.15 2.31 2.31 98 1002.7
20260501230303 15 49 4.8 16.1 0.15 2.31 2.31 98 1002.6
20260501230202 15 49 8.0 16.1 0.15 2.29 2.29 98 1002.4
20260501230003 15 49 6.4 16.1 0.15 2.29 2.29 98 1002.3
20260501225903 15 54 6.4 16.1 0.15 2.29 2.29 98 1002.2
20260501225802 15 30 6.4 16.1 0.15 2.29 2.29 98 1002.1
20260501225703 15 49 6.4 16.1 0.15 2.29 2.29 98 1002.0
20260501225602 15 44 6.4 9.7 0.15 2.29 2.29 98 1002.0
20260501225503 15 56 6.4 9.7 0.15 2.29 2.29 98 1002.1
20260501225402 15 73 6.4 9.7 0.15 2.29 2.29 98 1002.2
20260501225305 15 97 4.8 9.7 0.15 2.29 2.29 98 1002.2
20260501225202 15 41 4.8 9.7 0.15 2.29 2.29 98 1002.2
20260501225102 15 41 6.4 9.7 0.18 2.29 2.29 98 1002.4
20260501225005 15 62 6.4 9.7 0.15 2.26 2.26 98 1002.4
20260501224902 15 66 6.4 9.7 0.15 2.26 2.26 98 1002.5
20260501224802 15 49 4.8 9.7 0.15 2.26 2.26 97 1002.6
20260501224703 15 72 6.4 9.7 0.15 2.26 2.26 98 1002.6
20260501224603 15 56 4.8 9.7 0.15 2.26 2.26 98 1002.8
20260501224503 15 41 4.8 9.7 0.15 2.26 2.26 98 1002.8
20260501224402 15 49 4.8 9.7 0.15 2.26 2.26 98 1002.8
20260501224303 15 42 4.8 9.7 0.15 2.26 2.26 98 1002.9
20260501224201 15 59 3.2 8.0 0.15 2.26 2.26 98 1003.0
20260501224102 15 23 3.2 9.7 0.15 2.24 2.24 98 1003.1
20260501224003 15 23 3.2 9.7 0.13 2.24 2.24 98 1003.1
20260501223902 15 23 4.8 9.7 0.15 2.24 2.24 98 1002.9
20260501223802 15 27 4.8 14.5 0.15 2.24 2.24 98 1002.8
20260501223702 15 32 4.8 14.5 0.15 2.24 2.24 98 1002.7
20260501223603 15 24 4.8 14.5 0.15 2.24 2.24 98 1002.5
20260501223502 15 4 4.8 16.1 0.15 2.24 2.24 98 1002.3
20260501223400 15 42 4.8 16.1 0.15 2.24 2.24 98 1002.1
20260501223258 15 30 4.8 16.1 0.15 2.24 2.24 98 1002.1
20260501223157 15 75 6.4 16.1 0.15 2.21 2.21 98 1002.0
20260501223055 15 56 4.8 16.1 0.15 2.21 2.21 98 1001.9
20260501222954 15 44 4.8 16.1 0.15 2.21 2.21 98 1001.8
20260501222852 15 44 4.8 16.1 0.15 2.21 2.21 98 1001.8
20260501222751 15 45 6.4 16.1 0.15 2.21 2.21 98 1001.7
20260501222649 15 52 6.4 16.1 0.15 2.21 2.21 98 1001.5
20260501222548 15 37 4.8 14.5 0.15 2.21 2.21 98 1001.5
20260501222446 15 32 6.4 14.5 0.15 2.21 2.21 98 1001.4
20260501222343 15 32 6.4 14.5 0.15 2.21 2.21 98 1001.2
20260501222243 15 48 6.4 14.5 0.15 2.21 2.21 98 1001.2
20260501222142 15 66 6.4 14.5 0.15 2.18 2.18 98 1001.2
20260501222039 15 86 4.8 14.5 0.15 2.18 2.18 98 1001.2
20260501221939 15 49 6.4 14.5 0.15 2.18 2.18 98 1001.1
20260501221836 15 62 6.4 14.5 0.15 2.18 2.18 98 1001.2
20260501221735 15 24 8.0 14.5 0.15 2.18 2.18 98 1001.2
20260501221634 15 35 6.4 14.5 0.15 2.18 2.18 98 1001.3
20260501221533 15 38 6.4 14.5 0.15 2.18 2.18 98 1001.4
20260501221432 15 52 6.4 14.5 0.15 2.18 2.18 98 1001.4
20260501221332 15 39 6.4 14.5 0.15 2.18 2.18 98 1001.3
20260501221232 15 55 8.0 17.7 0.15 2.16 2.16 98 1001.2
20260501221131 15 47 8.0 17.7 0.15 2.16 2.16 98 1001.1
20260501221031 15 34 9.7 17.7 0.15 2.16 2.16 98 1001.0
20260501220931 15 42 9.7 17.7 0.15 2.16 2.16 98 1001.0
20260501220833 15 47 8.0 17.7 0.15 2.16 2.16 98 1000.9
20260501220731 15 49 6.4 17.7 0.15 2.16 2.16 98 1000.9
20260501220631 15 66 8.0 17.7 0.15 2.16 2.16 97 1000.8
20260501220531 15 85 9.7 17.7 0.15 2.16 2.16 98 1000.9
20260501220432 15 83 8.0 17.7 0.15 2.16 2.16 98 1001.0
20260501220331 15 61 8.0 17.7 0.18 2.16 2.16 98 1001.1
20260501220232 15 48 8.0 11.3 0.18 2.16 2.16 98 1001.2
20260501220132 15 61 8.0 11.3 0.15 2.13 2.13 98 1001.3
20260501220032 15 65 6.4 11.3 0.15 2.13 2.13 98 1001.4
20260501215930 15 44 6.4 11.3 0.15 2.13 2.13 98 1001.4
20260501215833 15 66 4.8 11.3 0.15 2.13 2.13 98 1001.5
20260501215732 15 51 6.4 11.3 0.15 2.13 2.13 98 1001.6
20260501215632 15 39 6.4 11.3 0.15 2.13 2.13 98 1001.7
20260501215531 15 52 4.8 11.3 0.15 2.13 2.13 98 1001.8
20260501215432 15 61 6.4 11.3 0.15 2.13 2.13 98 1002.0
20260501215330 15 41 6.4 11.3 0.18 2.13 2.13 98 1002.0
20260501215229 15 68 6.4 11.3 0.18 2.13 2.13 98 1002.0
20260501215130 15 78 6.4 14.5 0.18 2.11 2.11 98 1002.0
20260501215033 15 56 6.4 14.5 0.15 2.11 2.11 98 1002.1
20260501214930 15 3 6.4 14.5 0.15 2.11 2.11 98 1002.1
20260501214831 15 69 6.4 14.5 0.15 2.11 2.11 98 1001.9
20260501214731 15 82 6.4 14.5 0.15 2.11 2.11 98 1002.0
20260501214631 15 65 6.4 14.5 0.15 2.11 2.11 98 1002.0
20260501214532 15 55 8.0 14.5 0.15 2.11 2.11 98 1002.1
20260501214431 15 55 8.0 14.5 0.15 2.11 2.11 98 1002.1
20260501214332 15 55 8.0 14.5 0.18 2.11 2.11 98 1002.2
20260501214230 15 56 8.0 14.5 0.18 2.11 2.11 98 1002.4
20260501214130 16 39 6.4 14.5 0.18 2.11 2.11 98 1002.4
20260501214031 16 41 6.4 11.3 0.18 2.11 2.11 98 1002.5
20260501213930 16 61 4.8 11.3 0.15 2.08 2.08 98 1002.6
20260501213832 16 54 1.6 9.7 0.15 2.08 2.08 98 1002.6
20260501213730 16 39 3.2 9.7 0.15 2.08 2.08 98 1002.6
20260501213631 16 38 6.4 9.7 0.15 2.08 2.08 98 1002.8
20260501213530 16 35 6.4 9.7 0.15 2.08 2.08 98 1002.7
20260501213430 16 23 6.4 9.7 0.18 2.08 2.08 98 1002.8
20260501213331 16 56 6.4 9.7 0.18 2.08 2.08 98 1002.8
20260501213230 16 38 6.4 9.7 0.18 2.08 2.08 98 1002.8
20260501213131 16 10 6.4 9.7 0.18 2.06 2.06 98 1002.8
20260501213031 16 32 6.4 9.7 0.15 2.06 2.06 98 1002.8
20260501212931 16 20 6.4 8.0 0.15 2.06 2.06 98 1002.8
20260501212830 16 0 6.4 8.0 0.15 2.06 2.06 98 1002.7
20260501212730 16 41 6.4 8.0 0.15 2.06 2.06 98 1002.6
20260501212631 16 27 4.8 8.0 0.15 2.06 2.06 98 1002.7
20260501212530 16 28 4.8 8.0 0.15 2.06 2.06 98 1002.6
20260501212430 16 44 4.8 8.0 0.18 2.06 2.06 98 1002.6
20260501212331 16 44 6.4 8.0 0.18 2.06 2.06 98 1002.7
20260501212230 16 38 6.4 8.0 0.18 2.06 2.06 98 1002.7
20260501212129 16 42 6.4 8.0 0.18 2.03 2.03 98 1002.8
20260501212026 16 44 6.4 8.0 0.15 2.03 2.03 98 1002.8
20260501211925 16 0 4.8 9.7 0.15 2.03 2.03 98 1002.8
20260501211823 16 44 3.2 14.5 0.15 2.03 2.03 98 1002.8
20260501211723 16 44 3.2 14.5 0.15 2.03 2.03 98 1002.7
20260501211621 16 21 3.2 14.5 0.15 2.03 2.03 98 1002.6
20260501211520 16 20 4.8 14.5 0.18 2.03 2.03 98 1002.5
20260501211418 16 18 4.8 14.5 0.18 2.03 2.03 98 1002.2
20260501211316 16 17 4.8 14.5 0.18 2.03 2.03 98 1002.1
20260501211214 16 37 4.8 14.5 0.15 2.01 2.01 98 1002.0
20260501211114 16 41 6.4 14.5 0.15 2.01 2.01 98 1001.9
20260501211012 16 27 8.0 14.5 0.15 2.01 2.01 98 1001.7
20260501210911 16 31 8.0 14.5 0.15 2.01 2.01 98 1001.7
20260501210809 16 44 6.4 9.7 0.15 2.01 2.01 98 1001.8
20260501210708 16 41 4.8 8.0 0.15 2.01 2.01 98 1001.9
20260501210605 16 44 4.8 8.0 0.15 2.01 2.01 98 1002.0
20260501210505 16 24 3.2 8.0 0.18 2.01 2.01 98 1002.2
20260501210403 16 4 3.2 8.0 0.18 1.98 1.98 98 1002.3
20260501210302 16 3 3.2 8.0 0.15 1.98 1.98 98 1002.5
20260501210200 16 3 3.2 8.0 0.15 1.98 1.98 98 1002.5
20260501210059 16 10 3.2 8.0 0.15 1.98 1.98 98 1002.6
20260501205957 16 0 3.2 8.0 0.15 1.98 1.98 98 1002.5
20260501205856 16 357 4.8 8.0 0.15 1.98 1.98 98 1002.5
20260501205754 16 0 4.8 8.0 0.15 1.98 1.98 98 1002.5
20260501205653 16 24 3.2 8.0 0.15 1.98 1.98 98 1002.4
20260501205552 16 24 4.8 8.0 0.15 1.98 1.98 98 1002.2
20260501205449 16 24 3.2 8.0 0.18 1.96 1.96 98 1002.1
20260501205348 16 42 3.2 6.4 0.15 1.96 1.96 98 1002.1
20260501205246 16 42 3.2 6.4 0.15 1.96 1.96 98 1002.0
20260501205145 16 41 3.2 6.4 0.15 1.96 1.96 98 1002.0
20260501205043 16 42 4.8 6.4 0.15 1.96 1.96 98 1002.0
20260501204938 16 44 3.2 9.7 0.15 1.96 1.96 98 1001.8
20260501204836 16 42 3.2 11.3 0.15 1.96 1.96 98 1001.8
20260501204735 16 42 3.2 11.3 0.15 1.96 1.96 98 1001.8
20260501204634 16 42 4.8 11.3 0.15 1.96 1.96 98 1001.8
20260501204531 16 48 4.8 11.3 0.15 1.96 1.96 98 1001.8
20260501204430 16 71 3.2 11.3 0.15 1.96 1.96 98 1001.8
20260501204331 16 37 3.2 11.3 0.15 1.93 1.93 98 1001.8
20260501204232 16 37 4.8 11.3 0.15 1.93 1.93 98 1001.8
20260501204131 16 41 6.4 11.3 0.15 1.93 1.93 98 1001.7
20260501204031 16 35 6.4 11.3 0.15 1.93 1.93 98 1001.5
20260501203931 16 56 8.0 14.5 0.15 1.93 1.93 98 1001.3
20260501203831 16 34 9.7 14.5 0.15 1.93 1.93 98 1001.2
20260501203731 16 31 6.4 16.1 0.15 1.93 1.93 98 1001.0
20260501203632 16 41 6.4 16.1 0.15 1.93 1.93 98 1000.9
20260501203532 16 52 8.0 16.1 0.15 1.91 1.91 98 1000.9
20260501203431 16 41 6.4 16.1 0.15 1.91 1.91 98 1001.1
20260501203331 16 18 6.4 16.1 0.15 1.91 1.91 98 1001.2
20260501203233 16 37 6.4 16.1 0.15 1.91 1.91 98 1001.3
20260501203131 16 58 6.4 16.1 0.15 1.91 1.91 98 1001.4
20260501203031 16 63 6.4 16.1 0.15 1.91 1.91 98 1001.4
20260501202933 16 55 6.4 16.1 0.15 1.91 1.91 98 1001.3
20260501202831 16 76 6.4 16.1 0.15 1.91 1.91 98 1001.4
20260501202731 16 44 4.8 11.3 0.15 1.91 1.91 98 1001.4
20260501202631 16 1 6.4 11.3 0.15 1.91 1.91 98 1001.5
20260501202532 16 0 6.4 11.3 0.15 1.91 1.91 98 1001.5
20260501202431 16 1 6.4 11.3 0.15 1.88 1.88 98 1001.6
20260501202329 16 1 6.4 11.3 0.15 1.88 1.88 98 1001.6
20260501202228 16 0 6.4 11.3 0.15 1.88 1.88 98 1001.6
20260501202129 16 24 4.8 11.3 0.15 1.88 1.88 98 1001.6
20260501202029 16 14 4.8 11.3 0.15 1.88 1.88 98 1001.7
20260501201928 16 35 4.8 11.3 0.15 1.88 1.88 98 1001.8
20260501201829 16 1 4.8 11.3 0.15 1.88 1.88 98 1001.9
20260501201730 16 347 4.8 11.3 0.15 1.88 1.88 98 1002.0
20260501201628 16 16 4.8 11.3 0.15 1.88 1.88 98 1002.0
20260501201528 16 31 4.8 11.3 0.15 1.85 1.85 98 1001.9
20260501201428 16 30 6.4 11.3 0.13 1.85 1.85 98 1001.8
20260501201330 16 1 6.4 11.3 0.15 1.85 1.85 98 1001.7
20260501201228 16 1 4.8 11.3 0.15 1.85 1.85 98 1001.3
20260501201128 16 25 6.4 11.3 0.15 1.85 1.85 98 1001.1
20260501201030 16 31 6.4 11.3 0.15 1.85 1.85 98 1000.9
20260501200928 16 59 8.0 11.3 0.15 1.85 1.85 98 1000.6
20260501200828 16 39 6.4 11.3 0.15 1.85 1.85 98 1000.5
20260501200729 16 3 6.4 11.3 0.15 1.85 1.85 98 1000.4
20260501200630 16 49 6.4 11.3 0.15 1.85 1.85 98 1000.5
20260501200528 16 30 6.4 11.3 0.15 1.83 1.83 98 1000.7
20260501200429 16 48 6.4 11.3 0.13 1.83 1.83 98 1000.8
20260501200329 16 47 8.0 11.3 0.13 1.83 1.83 98 1001.0
20260501200228 16 54 8.0 11.3 0.13 1.83 1.83 98 1001.0
20260501200128 16 37 6.4 11.3 0.15 1.83 1.83 98 1001.2
20260501200028 16 17 6.4 11.3 0.15 1.83 1.83 98 1001.1
20260501195928 16 28 6.4 11.3 0.15 1.83 1.83 98 1001.1
20260501195828 16 42 6.4 11.3 0.15 1.83 1.83 98 1001.1
20260501195728 16 35 6.4 11.3 0.15 1.83 1.83 98 1001.2
20260501195629 16 24 6.4 11.3 0.15 1.83 1.83 98 1001.2
20260501195528 16 37 6.4 9.7 0.13 1.80 1.80 98 1001.2
20260501195429 16 32 6.4 9.7 0.13 1.80 1.80 98 1001.2
20260501195329 16 31 6.4 9.7 0.13 1.80 1.80 98 1001.1
20260501195228 16 31 6.4 9.7 0.13 1.80 1.80 98 1001.0
20260501195128 16 39 6.4 14.5 0.15 1.80 1.80 98 1001.0
20260501195028 16 34 6.4 14.5 0.15 1.80 1.80 98 1001.3
20260501194930 16 32 3.2 14.5 0.15 1.80 1.80 98 1001.6
20260501194828 16 24 3.2 14.5 0.15 1.80 1.80 98 1001.9
20260501194727 16 4 1.6 14.5 0.15 1.80 1.80 98 1002.3
20260501194628 16 1 0.0 14.5 0.15 1.80 1.80 98 1002.4
20260501194528 16 0 1.6 14.5 0.15 1.80 1.80 98 1002.3
20260501194427 16 0 3.2 14.5 0.15 1.80 1.80 98 1002.2
20260501194327 16 47 4.8 14.5 0.13 1.78 1.78 98 1002.0
20260501194229 16 28 6.4 14.5 0.13 1.78 1.78 98 1001.9
20260501194128 16 4 4.8 9.7 0.13 1.78 1.78 98 1001.8
20260501194027 16 42 3.2 9.7 0.13 1.78 1.78 98 1001.7
20260501193928 16 44 4.8 9.7 0.15 1.78 1.78 98 1001.8
20260501193827 16 35 4.8 9.7 0.15 1.78 1.78 98 1001.8
20260501193728 16 1 4.8 9.7 0.15 1.78 1.78 98 1001.9
20260501193627 16 355 4.8 9.7 0.15 1.78 1.78 98 1002.0
20260501193529 16 1 4.8 9.7 0.15 1.75 1.75 98 1002.0
20260501193427 16 0 4.8 9.7 0.13 1.75 1.75 98 1001.9
20260501193328 16 52 4.8 6.4 0.13 1.75 1.75 98 1001.8
20260501193228 16 343 4.8 6.4 0.13 1.75 1.75 98 1001.7
20260501193127 16 1 4.8 6.4 0.13 1.75 1.75 98 1001.6
20260501193028 16 1 3.2 6.4 0.13 1.75 1.75 98 1001.5
20260501192928 16 45 0.0 6.4 0.13 1.75 1.75 98 1001.4
20260501192829 16 0 0.0 6.4 0.13 1.75 1.75 98 1001.3
20260501192728 16 31 0.0 6.4 0.13 1.75 1.75 98 1001.4
20260501192627 16 30 0.0 6.4 0.15 1.75 1.75 98 1001.3
20260501192529 16 31 0.0 6.4 0.15 1.73 1.73 98 1001.3
20260501192427 16 32 0.0 8.0 0.13 1.73 1.73 98 1001.3
20260501192328 16 38 0.0 8.0 0.13 1.73 1.73 98 1001.4
20260501192227 16 61 0.0 8.0 0.13 1.73 1.73 98 1001.5
20260501192129 16 62 1.6 8.0 0.13 1.73 1.73 98 1001.6
20260501192028 16 63 3.2 8.0 0.13 1.73 1.73 98 1001.6
20260501191927 16 61 3.2 8.0 0.13 1.73 1.73 98 1001.6
20260501191828 16 61 3.2 8.0 0.13 1.73 1.73 98 1001.6
20260501191727 16 27 3.2 8.0 0.13 1.73 1.73 98 1001.6
20260501191628 16 27 4.8 9.7 0.13 1.73 1.73 98 1001.5
20260501191527 16 31 4.8 9.7 0.13 1.73 1.73 98 1001.5
20260501191428 16 38 4.8 9.7 0.15 1.73 1.73 98 1001.5
20260501191326 16 49 4.8 9.7 0.13 1.70 1.70 98 1001.5
20260501191227 16 49 3.2 9.7 0.13 1.70 1.70 98 1001.5
20260501191128 16 59 3.2 9.7 0.13 1.70 1.70 98 1001.4
20260501191027 16 66 3.2 9.7 0.13 1.70 1.70 98 1001.4
20260501190927 16 66 3.2 9.7 0.13 1.70 1.70 98 1001.3
20260501190829 16 61 4.8 9.7 0.13 1.70 1.70 98 1001.2
20260501190728 16 82 4.8 9.7 0.13 1.70 1.70 98 1001.1
20260501190627 16 37 4.8 9.7 0.13 1.70 1.70 98 1000.9
20260501190526 16 62 4.8 9.7 0.15 1.70 1.70 98 1000.9
20260501190426 16 34 4.8 9.7 0.15 1.70 1.70 98 1001.1
20260501190327 16 32 3.2 9.7 0.15 1.70 1.70 98 1001.4
20260501190226 16 117 4.8 11.3 0.15 1.70 1.70 98 1001.7
20260501190128 16 117 6.4 11.3 0.13 1.68 1.68 98 1001.9
20260501190028 16 113 8.0 16.1 0.13 1.68 1.68 98 1002.1
20260501185927 16 114 8.0 16.1 0.13 1.68 1.68 98 1002.1
20260501185826 16 120 6.4 16.1 0.13 1.68 1.68 98 1001.9
20260501185728 16 110 6.4 16.1 0.13 1.68 1.68 98 1001.7
20260501185627 16 94 6.4 16.1 0.15 1.68 1.68 98 1001.4
20260501185527 16 58 4.8 16.1 0.15 1.68 1.68 98 1001.2
20260501185426 16 100 6.4 16.1 0.15 1.68 1.68 98 1001.0
20260501185327 16 97 6.4 16.1 0.15 1.68 1.68 98 1001.0
20260501185227 16 52 8.0 16.1 0.15 1.65 1.65 98 1001.0
20260501185126 16 75 6.4 16.1 0.13 1.65 1.65 98 1001.0
20260501185027 16 54 3.2 9.7 0.13 1.65 1.65 98 1001.2
20260501184926 16 62 4.8 9.7 0.13 1.65 1.65 98 1001.1
20260501184826 16 55 6.4 9.7 0.15 1.65 1.65 98 1001.1
20260501184726 16 89 3.2 9.7 0.15 1.65 1.65 98 1001.1
20260501184627 16 75 3.2 9.7 0.15 1.65 1.65 98 1001.2
20260501184526 16 41 3.2 9.7 0.15 1.65 1.65 98 1001.1
20260501184426 16 37 3.2 9.7 0.15 1.65 1.65 98 1001.1
20260501184328 16 62 4.8 11.3 0.15 1.65 1.65 98 1001.0
20260501184226 16 47 6.4 11.3 0.15 1.65 1.65 98 1001.0
20260501184127 16 72 6.4 14.5 0.15 1.65 1.65 98 1000.8
20260501184027 16 56 6.4 14.5 0.18 1.65 1.65 98 1000.8
20260501183927 16 73 6.4 14.5 0.15 1.63 1.63 98 1000.7
20260501183826 16 54 6.4 14.5 0.15 1.63 1.63 98 1000.5
20260501183726 16 58 6.4 14.5 0.15 1.63 1.63 98 1000.4
20260501183628 16 65 6.4 14.5 0.15 1.63 1.63 98 1000.3
20260501183526 16 65 6.4 14.5 0.15 1.63 1.63 98 1000.3
20260501183426 16 42 8.0 14.5 0.15 1.63 1.63 98 1000.2
20260501183327 16 59 8.0 14.5 0.15 1.63 1.63 98 1000.4
20260501183226 16 52 6.4 14.5 0.18 1.63 1.63 98 1000.4
20260501183126 16 38 4.8 11.3 0.18 1.63 1.63 98 1000.6
20260501183026 16 55 6.4 11.3 0.18 1.63 1.63 98 1000.8
20260501182927 16 49 4.8 11.3 0.18 1.63 1.63 98 1000.8
20260501182826 16 69 4.8 9.7 0.18 1.63 1.63 98 1000.9
20260501182726 16 72 4.8 9.7 0.18 1.60 1.60 98 1001.1
20260501182628 16 76 4.8 9.7 0.15 1.60 1.60 98 1001.1
20260501182527 16 65 6.4 9.7 0.15 1.60 1.60 98 1001.3
20260501182426 16 59 6.4 9.7 0.18 1.60 1.60 98 1001.3
20260501182327 16 71 4.8 8.0 0.18 1.60 1.60 98 1001.3
20260501182227 16 71 4.8 8.0 0.18 1.60 1.60 98 1001.3
20260501182126 16 107 3.2 8.0 0.18 1.60 1.60 98 1001.3
20260501182026 16 66 1.6 8.0 0.18 1.60 1.60 98 1001.3
20260501181927 16 66 1.6 8.0 0.18 1.60 1.60 98 1001.3
20260501181826 16 44 1.6 8.0 0.18 1.60 1.60 98 1001.3
20260501181726 16 44 3.2 9.7 0.20 1.60 1.60 98 1001.2
20260501181627 16 44 4.8 11.3 0.20 1.60 1.60 98 1001.0
20260501181526 16 54 4.8 11.3 0.20 1.60 1.60 98 1000.8
20260501181426 16 31 4.8 11.3 0.18 1.57 1.57 98 1000.6
20260501181325 16 35 4.8 11.3 0.18 1.57 1.57 98 1000.5
20260501181227 16 48 4.8 17.7 0.18 1.57 1.57 98 1000.4
20260501181126 16 79 6.4 17.7 0.18 1.57 1.57 98 1000.3
20260501181025 16 41 6.4 17.7 0.18 1.57 1.57 98 1000.2
20260501180926 16 38 6.4 17.7 0.18 1.57 1.57 98 1000.2
20260501180826 16 39 6.4 17.7 0.20 1.57 1.57 98 1000.0
20260501180726 16 65 6.4 17.7 0.20 1.57 1.57 98 1000.0
20260501180625 16 10 4.8 17.7 0.20 1.55 1.55 98 999.9
20260501180527 16 48 3.2 17.7 0.18 1.55 1.55 98 999.8
20260501180425 16 48 6.4 17.7 0.18 1.55 1.55 98 999.5
20260501180326 16 83 6.4 17.7 0.18 1.55 1.55 98 999.2
20260501180226 16 49 6.4 14.5 0.18 1.55 1.55 98 999.2
20260501180125 16 68 8.0 14.5 0.18 1.55 1.55 98 999.4
20260501180025 16 82 8.0 14.5 0.18 1.55 1.55 98 999.5
20260501175926 16 54 6.4 14.5 0.20 1.55 1.55 98 999.7
20260501175826 16 52 4.8 14.5 0.20 1.55 1.55 98 999.8
20260501175725 16 45 6.4 14.5 0.20 1.55 1.55 98 999.8
20260501175627 16 37 8.0 17.7 0.18 1.52 1.52 98 999.8
20260501175526 16 47 8.0 17.7 0.18 1.52 1.52 98 999.7
20260501175425 16 41 6.4 17.7 0.18 1.52 1.52 98 999.6
20260501175325 16 49 6.4 17.7 0.18 1.52 1.52 98 999.4
20260501175225 16 59 6.4 17.7 0.18 1.52 1.52 98 999.3
20260501175126 16 65 6.4 17.7 0.18 1.52 1.52 98 999.1
20260501175025 16 83 6.4 17.7 0.20 1.52 1.52 98 998.7
20260501174925 16 55 8.0 17.7 0.20 1.50 1.50 98 998.3
20260501174827 16 30 9.7 17.7 0.18 1.50 1.50 98 997.8
20260501174725 16 61 9.7 17.7 0.18 1.50 1.50 98 997.8
20260501174625 16 76 8.0 17.7 0.18 1.50 1.50 98 998.1
20260501174526 16 90 6.4 17.7 0.18 1.50 1.50 98 998.5
20260501174427 16 68 6.4 17.7 0.18 1.50 1.50 98 999.0
20260501174325 16 63 6.4 17.7 0.18 1.50 1.50 98 999.6
20260501174224 16 83 8.0 17.7 0.20 1.50 1.50 98 1000.1
20260501174126 16 71 6.4 17.7 0.20 1.47 1.47 98 1000.6
20260501174025 16 48 6.4 14.5 0.18 1.47 1.47 98 1000.8
20260501173925 16 66 8.0 14.5 0.18 1.47 1.47 98 1001.1
20260501173825 16 41 6.4 14.5 0.18 1.47 1.47 98 1001.3
20260501173726 16 37 4.8 14.5 0.18 1.47 1.47 98 1001.4
20260501173624 16 18 4.8 14.5 0.18 1.47 1.47 98 1001.6
20260501173525 16 31 6.4 14.5 0.20 1.47 1.47 98 1001.6
20260501173426 16 51 6.4 14.5 0.20 1.47 1.47 98 1001.6
20260501173325 16 44 6.4 9.7 0.20 1.45 1.45 98 1001.6
20260501173225 16 7 4.8 9.7 0.18 1.45 1.45 98 1001.6
20260501173126 16 0 4.8 9.7 0.18 1.45 1.45 98 1001.7
20260501173026 16 37 4.8 9.7 0.18 1.45 1.45 98 1001.7
20260501172924 16 39 4.8 9.7 0.18 1.45 1.45 98 1001.8
20260501172825 16 30 4.8 9.7 0.18 1.45 1.45 98 1001.8
20260501172726 16 25 6.4 9.7 0.20 1.45 1.45 98 1002.0
20260501172624 16 34 6.4 9.7 0.20 1.45 1.45 98 1002.0
20260501172525 16 24 4.8 9.7 0.20 1.42 1.42 98 1002.1
20260501172424 16 24 4.8 8.0 0.18 1.42 1.42 98 1002.2
20260501172326 16 61 4.8 8.0 0.18 1.42 1.42 98 1002.2
20260501172224 16 49 4.8 8.0 0.18 1.42 1.42 98 1002.2
20260501172125 16 28 6.4 8.0 0.18 1.42 1.42 98 1002.3
20260501172026 16 4 4.8 8.0 0.18 1.42 1.42 98 1002.4
20260501171925 16 34 3.2 8.0 0.20 1.42 1.42 98 1002.4
20260501171824 16 28 4.8 8.0 0.20 1.42 1.42 98 1002.5
20260501171725 16 31 4.8 8.0 0.18 1.40 1.40 98 1002.6
20260501171624 16 16 4.8 8.0 0.18 1.40 1.40 98 1002.8
20260501171524 16 18 3.2 8.0 0.18 1.40 1.40 98 1002.8
20260501171424 16 11 3.2 8.0 0.18 1.40 1.40 98 1003.0
20260501171325 16 10 3.2 9.7 0.18 1.40 1.40 98 1003.1
20260501171225 16 329 3.2 9.7 0.18 1.40 1.40 98 1003.1
20260501171124 16 329 4.8 9.7 0.20 1.40 1.40 98 1003.1
20260501171024 16 0 4.8 16.1 0.20 1.40 1.40 98 1003.2
20260501170924 16 354 4.8 16.1 0.20 1.40 1.40 98 1003.2
20260501170824 16 331 4.8 16.1 0.18 1.37 1.37 98 1003.0
20260501170724 16 25 4.8 16.1 0.18 1.37 1.37 98 1002.8
20260501170626 16 11 4.8 16.1 0.18 1.37 1.37 98 1002.8
20260501170524 16 30 6.4 16.1 0.18 1.37 1.37 98 1002.7
20260501170425 16 39 4.8 16.1 0.18 1.37 1.37 98 1002.8
20260501170326 16 37 4.8 16.1 0.20 1.37 1.37 98 1002.8
20260501170225 16 32 6.4 16.1 0.20 1.37 1.37 98 1002.9
20260501170124 16 38 6.4 16.1 0.20 1.37 1.37 98 1002.7
20260501170024 16 24 6.4 14.5 0.20 1.35 1.35 98 1002.6
20260501165926 16 59 6.4 14.5 0.18 1.35 1.35 98 1002.4
20260501165824 16 37 6.4 14.5 0.18 1.35 1.35 98 1002.2
20260501165724 16 42 6.4 14.5 0.18 1.35 1.35 98 1002.2
20260501165625 16 39 6.4 14.5 0.18 1.35 1.35 98 1002.3
20260501165524 16 27 6.4 11.3 0.20 1.35 1.35 98 1002.5
20260501165424 16 51 6.4 11.3 0.20 1.35 1.35 98 1002.5
20260501165324 16 31 4.8 11.3 0.20 1.35 1.35 98 1002.7
20260501165225 16 13 4.8 11.3 0.20 1.35 1.35 98 1002.8
20260501165125 16 18 6.4 11.3 0.18 1.32 1.32 98 1002.8
20260501165024 16 44 4.8 11.3 0.18 1.32 1.32 98 1002.8
20260501164925 16 16 3.2 11.3 0.18 1.32 1.32 98 1002.8
20260501164823 16 28 3.2 9.7 0.18 1.32 1.32 98 1002.7
20260501164724 16 78 4.8 9.7 0.18 1.32 1.32 98 1002.8
20260501164625 16 63 3.2 9.7 0.20 1.32 1.32 98 1003.0
20260501164525 16 45 3.2 9.7 0.20 1.32 1.32 98 1003.1
20260501164425 16 34 3.2 9.7 0.20 1.32 1.32 98 1003.1
20260501164323 16 73 3.2 9.7 0.20 1.30 1.30 98 1003.0
20260501164224 16 72 6.4 9.7 0.18 1.30 1.30 98 1003.0
20260501164124 16 48 4.8 9.7 0.18 1.30 1.30 98 1002.8
20260501164024 16 34 4.8 9.7 0.18 1.30 1.30 98 1002.7
20260501163924 16 51 6.4 9.7 0.18 1.30 1.30 98 1002.4
20260501163825 16 61 6.4 9.7 0.20 1.30 1.30 98 1002.3
20260501163723 16 54 6.4 9.7 0.20 1.30 1.30 98 1002.5
20260501163624 16 48 6.4 9.7 0.20 1.30 1.30 98 1002.6
20260501163524 16 73 6.4 9.7 0.18 1.27 1.27 97 1002.9
20260501163423 16 28 4.8 9.7 0.18 1.27 1.27 97 1002.9
20260501163323 16 59 6.4 9.7 0.18 1.27 1.27 97 1003.1
20260501163223 16 54 6.4 9.7 0.18 1.27 1.27 97 1003.2
20260501163125 16 49 6.4 9.7 0.18 1.27 1.27 97 1003.3
20260501163023 16 39 4.8 9.7 0.18 1.27 1.27 97 1003.4
20260501162923 16 56 4.8 9.7 0.20 1.27 1.27 97 1003.4
20260501162823 16 30 6.4 9.7 0.20 1.27 1.27 97 1003.5
20260501162724 16 66 4.8 9.7 0.18 1.24 1.24 97 1003.6
20260501162623 16 71 4.8 9.7 0.18 1.24 1.24 97 1003.5
20260501162523 16 82 6.4 9.7 0.18 1.24 1.24 97 1003.6
20260501162425 16 39 4.8 11.3 0.18 1.24 1.24 98 1003.7
20260501162323 16 56 4.8 11.3 0.18 1.24 1.24 98 1003.7
20260501162223 16 35 4.8 11.3 0.18 1.24 1.24 98 1003.9
20260501162125 16 83 6.4 11.3 0.18 1.24 1.24 98 1004.0
20260501162023 16 37 6.4 11.3 0.20 1.24 1.24 98 1004.0
20260501161924 16 45 6.4 11.3 0.18 1.22 1.22 98 1004.0
20260501161824 16 49 6.4 11.3 0.18 1.22 1.22 98 1004.0
20260501161724 16 25 4.8 11.3 0.18 1.22 1.22 98 1004.0
20260501161623 16 44 6.4 11.3 0.18 1.22 1.22 98 1003.9
20260501161523 16 35 6.4 11.3 0.18 1.22 1.22 98 1003.9
20260501161423 16 45 6.4 9.7 0.18 1.22 1.22 98 1003.9
20260501161323 16 21 6.4 9.7 0.18 1.22 1.22 97 1003.9
20260501161223 16 37 6.4 9.7 0.18 1.19 1.19 98 1003.9
20260501161124 16 18 6.4 9.7 0.18 1.19 1.19 97 1004.0
20260501161023 16 38 3.2 9.7 0.18 1.19 1.19 98 1004.1
20260501160923 16 37 0.0 4.8 0.18 1.19 1.19 97 1004.3
20260501160823 16 41 0.0 4.8 0.18 1.19 1.19 98 1004.4
20260501160724 16 30 0.0 4.8 0.18 1.19 1.19 98 1004.7
20260501160622 16 13 0.0 6.4 0.18 1.19 1.19 98 1004.7
20260501160524 16 10 0.0 9.7 0.18 1.19 1.19 98 1004.8
20260501160424 16 13 1.6 9.7 0.18 1.17 1.17 98 1004.8
20260501160322 16 20 1.6 9.7 0.15 1.17 1.17 98 1004.8
20260501160223 16 0 1.6 11.3 0.18 1.17 1.17 98 1004.7
20260501160122 16 1 3.2 11.3 0.18 1.17 1.17 98 1004.7
20260501160024 16 4 1.6 11.3 0.18 1.17 1.17 98 1004.7
20260501155922 16 4 1.6 11.3 0.18 1.17 1.17 98 1004.5
20260501155823 16 1 3.2 11.3 0.18 1.17 1.17 98 1004.4
20260501155723 16 1 4.8 11.3 0.18 1.17 1.17 98 1004.4
20260501155622 16 68 4.8 11.3 0.18 1.14 1.14 98 1004.4
20260501155523 16 28 4.8 11.3 0.15 1.14 1.14 98 1004.3
20260501155422 16 17 4.8 11.3 0.15 1.14 1.14 98 1004.2
20260501155324 16 25 4.8 11.3 0.15 1.14 1.14 98 1004.2
20260501155222 16 48 4.8 9.7 0.18 1.14 1.14 98 1004.2
20260501155122 16 18 4.8 9.7 0.18 1.14 1.14 97 1004.2
20260501155023 16 25 4.8 14.5 0.18 1.14 1.14 97 1004.2
20260501154922 16 37 3.2 14.5 0.18 1.14 1.14 97 1004.2
20260501154823 16 38 4.8 14.5 0.18 1.14 1.14 97 1004.3
20260501154722 16 27 4.8 14.5 0.18 1.14 1.14 97 1004.2
20260501154623 16 0 6.4 14.5 0.15 1.12 1.12 97 1004.2
20260501154523 16 14 6.4 14.5 0.15 1.12 1.12 97 1004.2